www.pogodaiklimat.ru

Погода и климат >> Архив погоды >> Норвегия >> Маяк Svinoy


ПОГОДА на Маяке Svinoy

  • Прогноз погоды на Маяке Svinoy
  • Монитор погоды на Маяке Svinoy

АРХИВ ПОГОДЫ на Маяке Svinoy

Время (UTC), дата Ветер
(напр.,м/с)
 
Видим.   Явления Облачность Т
(С)
Тd
(С)
f
(%)
Тe
(С)
Тes
(С)
Комфортность P
(гПа)
Po
(гПа)
Тmin
(С)
Tmax
(С)
R
(мм)
R24
(мм)
S
(см)
01 9.06 СВ 2-3
{4}
н/о н/о +9.9 +9.6 98 +8 +8 1006.2 1001.7
02 9.06 СВ 2-2
{3}
н/о н/о +9.8 +9.5 98 +8 +8 1005.6 1001.1
03 9.06 В 1-2
{4}
н/о н/о +10.0 +9.7 98 +9 +9 1005.3 1000.8
04 9.06 Ю 1-1
{2}
н/о н/о +10.4 +10.1 98 +10 +10 1005.3 1000.8
05 9.06 СЗ 2-2
{3}
н/о н/о +10.1 +9.8 98 +8 +8 1005.4 1000.9
06 9.06 З 2-2
{4}
н/о н/о +9.7 +9.4 98 +8 +8 1005.2 1000.7 +9.7 +10.8
07 9.06 З 5-5
{5}
н/о н/о +9.7 +9.4 98 +6 +6 1005.4 1000.9
08 9.06 З 9-14
{14}
н/о н/о +9.4 +9.1 98 +5 +5 1006.0 1001.5
09 9.06 -2
{21}
н/о н/о +9.4 +9.1 98 1006.7 1002.2
10 9.06
{34}
н/о н/о +10.1 +9.8 98 1006.9 1002.4
11 9.06 ЮЗ 5-7
{9}
н/о н/о +11.0 +10.2 95 +8 +8 1006.8 1002.3
12 9.06 ЮЗ 8-10
{34}
н/о н/о +11.0 +10.1 94 +7 +7 1006.5 1002.0
13 9.06 З 7-9
{9}
н/о н/о +10.5 +10.0 97 +7 +7 1006.8 1002.3
14 9.06 З 6-8
{10}
н/о н/о +10.2 +9.9 98 +7 +7 1007.8 1003.3
15 9.06 З 8-11
{11}
н/о н/о +9.7 +9.4 98 +5 +5 1008.6 1004.1
16 9.06 ЮЗ 10-12
{12}
н/о н/о +9.8 +8.7 93 +5 +5 1009.3 1004.8
17 9.06 ЮЗ 11-13
{13}
н/о н/о +9.9 +8.0 88 +5 +5 1009.6 1005.1
18 9.06 ЮЗ 13-14
{15}
н/о н/о +10.0 +7.9 87 +5 +5 1009.8 1005.3 +9.2 +11.3
19 9.06 ЮЗ 11-12
{15}
н/о н/о +9.4 +7.9 90 +4 +4 1010.5 1006.0
20 9.06 ЮЗ 12-14
{14}
н/о н/о +9.6 +7.6 87 +5 +5 1010.8 1006.3
21 9.06 ЮЗ 13-14
{14}
н/о н/о +9.7 +6.4 80 +5 +5 1011.5 1007.0
22 9.06 ЮЗ 12-14
{17}
н/о н/о +8.9 +7.7 92 +3 +3 1012.3 1007.8
23 9.06 ЮЗ 14-16
{18}
н/о н/о +8.6 +7.2 91 +3 +3 1012.6 1008.1
00 10.06 ЮЗ 16-20
{20}
н/о н/о +9.0 +6.5 84 +3 +3 1012.0 1007.5
01 10.06 ЮЗ 15-18
{20}
н/о н/о +9.2 +6.7 84 +3 +3 1013.0 1008.5
02 10.06 ЮЗ 17-20
{22}
н/о н/о +8.7 +6.8 88 +2 +2 1013.1 1008.6
03 10.06 ЮЗ 15-18
{20}
н/о н/о +9.3 +6.2 81 +4 +4 1013.7 1009.2
04 10.06 ЮЗ 14-17
{19}
н/о н/о +9.5 +6.1 79 +4 +4 1013.8 1009.3
05 10.06 ЮЗ 14-16
{21}
н/о н/о +9.8 +5.8 76 +5 +5 1014.2 1009.7
06 10.06 ЮЗ 14-18
{22}
н/о н/о +9.6 +6.7 82 +4 +4 1014.5 1010.0 +8.0 +10.0
07 10.06 ЮЗ 12-16
{16}
н/о н/о +8.9 +7.0 88 +4 +4 1015.2 1010.7
08 10.06 ЮЗ 10-14
{17}
н/о н/о +9.3 +6.6 83 +5 +5 1015.8 1011.3
09 10.06 ЮЗ 12-15
{18}
н/о н/о +9.3 +7.1 86 +4 +4 1016.2 1011.7
10 10.06 ЮЗ 12-15
{20}
н/о н/о +10.1 +5.5 73 +5 +5 1016.9 1012.4
11 10.06 ЮЗ 16-18
{18}
н/о н/о +9.5 +6.8 83 +4 +4 1016.8 1012.3
12 10.06 ЮЗ 13-15
{20}
н/о н/о +9.0 +7.5 90 +3 +3 1017.2 1012.7
13 10.06 ЮЗ 12-15
{16}
н/о н/о +9.8 +7.1 83 +5 +5 1017.6 1013.1
14 10.06 ЮЗ 11-14
{15}
н/о н/о +10.3 +6.8 79 +6 +6 1018.4 1013.9
15 10.06 ЮЗ 10-13
{14}
н/о н/о +10.6 +6.4 75 +6 +6 1018.7 1014.2
16 10.06 ЮЗ 10-11
{13}
н/о н/о +10.5 +7.2 80 +6 +6 1018.9 1014.4
17 10.06 ЮЗ 12-14
{14}
н/о н/о +10.3 +7.4 82 +6 +6 1019.1 1014.6
18 10.06 ЮЗ 9-11
{16}
н/о н/о +10.2 +7.5 83 +6 +6 1019.6 1015.1 +8.8 +10.8
19 10.06 ЮЗ 8-9
{12}
н/о н/о +10.1 +7.5 84 +6 +6 1020.0 1015.5
20 10.06 ЮЗ 7-8
{9}
н/о н/о +10.0 +7.8 86 +6 +6 1020.4 1015.9
21 10.06 ЮЗ 7-8
{8}
н/о н/о +9.9 +7.3 84 +6 +6 1021.1 1016.5
22 10.06 ЮЗ 5-6
{7}
н/о н/о +9.9 +7.5 85 +7 +7 1021.9 1017.3
23 10.06 ЮЗ 1-2
{5}
н/о н/о +9.8 +7.8 87 +9 +9 1022.5 1017.9
00 11.06 СВ 4-5
{12}
н/о н/о +9.8 +7.6 86 +7 +7 1022.3 1017.7
01 11.06 СВ 6-7
{7}
н/о н/о +9.7 +8.1 90 +6 +6 1022.3 1017.7
02 11.06 СВ 8-9
{9}
н/о н/о +9.8 +8.2 90 +6 +6 1022.1 1017.5
03 11.06 В 6-7
{8}
н/о н/о +9.9 +8.7 92 +6 +6 1022.3 1017.7
04 11.06 В 5-6
{8}
н/о н/о +10.2 +8.8 91 +7 +7 1022.9 1018.3
05 11.06 В 6-7
{8}
н/о н/о +10.4 +8.8 90 +7 +7 1023.3 1018.7
06 11.06 СВ 7-8
{10}
н/о н/о +10.5 +8.9 90 +7 +7 1023.6 1019.0 +9.7 +10.6
07 11.06 СВ 8-8
{8}
н/о н/о +10.6 +8.9 89 +7 +7 1023.7 1019.1
08 11.06 СВ 9-10
{10}
н/о н/о +10.7 +9.0 89 +7 +7 1024.1 1019.5
09 11.06 СВ 11-12
{12}
н/о н/о +10.7 +8.6 87 +6 +6 1024.0 1019.4
10 11.06 СВ 12-13
{13}
н/о н/о +10.8 +8.6 86 +6 +6 1024.0 1019.5
11 11.06 СВ 14-16
{16}
н/о н/о +10.8 +8.9 88 +6 +6 1024.0 1019.5
12 11.06 СВ 15-17
{19}
н/о н/о +10.7 +8.6 87 +6 +6 1024.2 1019.6
13 11.06 СВ 16-19
{19}
н/о н/о +10.5 +7.9 84 +5 +5 1024.0 1019.4
14 11.06 СВ 17-21
{21}
н/о н/о +10.2 +7.5 83 +5 +5 1024.3 1019.7
15 11.06 СВ 18-22
{22}
н/о н/о +10.0 +6.7 80 +4 +4 1024.1 1019.5
16 11.06 СВ 17-20
{21}
н/о н/о +9.9 +7.0 82 +4 +4 1024.4 1019.8
17 11.06 СВ 17-20
{20}
н/о н/о +9.8 +6.9 82 +4 +4 1024.6 1020.0
18 11.06 СВ 17-20
{22}
н/о н/о +9.7 +7.0 83 +4 +4 1024.8 1020.2 +9.6 +11.0
19 11.06 СВ 16-20
{20}
н/о н/о +9.7 +7.3 85 +4 +4 1024.8 1020.2
20 11.06 СВ 17-19
{20}
н/о н/о +9.6 +7.0 84 +4 +4 1024.5 1019.9
21 11.06 СВ 17-20
{21}
н/о н/о +9.6 +7.4 86 +4 +4 1024.1 1019.5
22 11.06 СВ 17-20
{21}
н/о н/о +9.5 +7.5 87 +4 +4 1024.1 1019.5
23 11.06 СВ 17-19
{21}
н/о н/о +9.4 +7.7 89 +3 +3 1023.9 1019.3
00 12.06 СВ 17-20
{21}
н/о н/о +9.3 +7.6 89 +3 +3 1023.7 1019.1
01 12.06 СВ 14-17
{20}
н/о н/о +9.3 +7.9 91 +4 +4 1023.9 1019.3
02 12.06 СВ 15-18
{18}
н/о н/о +9.2 +7.8 91 +3 +3 1023.1 1018.5
03 12.06 СВ 15-17
{18}
н/о н/о +9.3 +8.1 92 +3 +3 1022.5 1017.9
04 12.06 СВ 13-16
{17}
н/о н/о +9.4 +8.2 92 +4 +4 1022.5 1017.9
05 12.06 СВ 13-15
{16}
н/о н/о +9.7 +8.3 91 +4 +4 1022.9 1018.3
06 12.06 СВ 14-16
{20}
н/о н/о +9.8 +8.2 90 +4 +4 1022.5 1017.9 +9.2 +9.9
07 12.06 СВ 12-13
{16}
н/о н/о +10.1 +8.5 90 +5 +5 1022.0 1017.4
08 12.06 СВ 11-13
{13}
н/о н/о +10.3 +8.6 89 +6 +6 1021.4 1016.9
09 12.06 СВ 11-12
{13}
н/о н/о +10.2 +9.0 92 +5 +5 1021.0 1016.5
10 12.06 СВ 11-12
{12}
н/о н/о +10.3 +8.9 91 +6 +6 1020.8 1016.3
11 12.06 СВ 11-12
{14}
н/о н/о +10.1 +9.0 93 +5 +5 1020.6 1016.1
12 12.06 СВ 11-13
{16}
н/о н/о +10.1 +9.0 93 +5 +5 1019.9 1015.4
13 12.06 СВ 11-13
{13}
н/о н/о +10.3 +9.2 93 +6 +6 1019.0 1014.5
14 12.06 СВ 10-11
{12}
н/о н/о +10.3 +9.2 93 +6 +6 1018.6 1014.1
15 12.06 СВ 10-12
{12}
н/о н/о +10.2 +9.1 93 +6 +6 1017.9 1013.4
16 12.06 СВ 9-11
{12}
н/о н/о +10.3 +9.5 95 +6 +6 1017.4 1012.9
17 12.06 СВ 8-11
{11}
н/о н/о +10.2 +9.4 95 +6 +6 1017.6 1013.1
18 12.06 СВ 12-13
{13}
н/о н/о +9.9 +9.5 97 +5 +5 1016.6 1012.1 +9.8 +10.5
19 12.06 СВ 10-12
{13}
н/о н/о +9.9 +9.6 98 +5 +5 1016.2 1011.7
20 12.06 СВ 7-8
{11}
н/о н/о +9.9 +9.6 98 +6 +6 1015.6 1011.1
21 12.06 СВ 8-10
{10}
н/о н/о +9.9 +9.6 98 +6 +6 1015.0 1010.5
22 12.06 СВ 8-9
{11}
н/о н/о +9.7 +9.4 98 +5 +5 1014.4 1009.9
23 12.06 СВ 7-8
{9}
н/о н/о +9.8 +9.5 98 +6 +6 1013.2 1008.7
00 13.06 СВ 6-6
{13}
н/о н/о +9.9 +9.6 98 +6 +6 1012.4 1007.9
01 13.06 СВ 4-5
{6}
н/о н/о +9.9 +9.6 98 +7 +7 1011.4 1006.9
02 13.06 СВ 6-7
{7}
н/о н/о +9.9 +9.6 98 +6 +6 1010.4 1005.9
03 13.06 СВ 7-8
{8}
н/о н/о +9.9 +9.6 98 +6 +6 1009.0 1004.5
04 13.06 СВ 9-10
{10}
н/о н/о +10.0 +9.7 98 +6 +6 1007.7 1003.2
05 13.06 СВ 7-8
{10}
н/о н/о +10.1 +9.8 98 +6 +6 1006.8 1002.3
06 13.06 СВ 8-9
{10}
н/о н/о +10.2 +9.9 98 +6 +6 1005.4 1000.9 +9.7 +10.2
07 13.06 СВ 8-10
{10}
н/о н/о +10.3 +10.0 98 +6 +6 1005.1 1000.6
08 13.06 СВ 6-7
{9}
н/о н/о +10.3 +10.0 98 +7 +7 1005.4 1000.9
09 13.06 СВ 3-4
{6}
н/о н/о +10.4 +10.3 99 +8 +8 1005.6 1001.1
10 13.06 СВ 1-2
{4}
н/о н/о +10.9 +10.6 98 +10 +10 1005.6 1001.1
11 13.06 С 1-2
{2}
н/о н/о +11.2 +10.3 94 +11 +11 1005.8 1001.3
12 13.06 С 2-2
{10}
н/о н/о +11.2 +10.1 93 +10 +10 1005.8 1001.3
13 13.06 СВ 2-2
{3}
н/о н/о +11.6 +10.4 92 +10 +10 1006.5 1002.0
14 13.06 В 2-2
{3}
н/о н/о +11.7 +10.3 91 +11 +11 1007.0 1002.5
15 13.06 С 1-3
{3}
н/о н/о +11.8 +10.4 91 +12 +12 1007.9 1003.4
16 13.06 В 3-3
{3}
н/о н/о +11.8 +10.6 92 +10 +10 1008.6 1004.1
17 13.06 З 4-5
{5}
н/о н/о +12.2 +10.6 90 +10 +10 1009.1 1004.6
18 13.06 З 1-3
{5}
н/о н/о +12.3 +10.7 90 +12 +12 1010.2 1005.7 +10.2 +12.5
19 13.06 Ю 2-3
{6}
н/о н/о +12.7 +10.9 89 +12 +12 1011.0 1006.5
20 13.06 В 5-6
{6}
н/о н/о +11.6 +10.4 92 +9 +9 1011.6 1007.1
21 13.06 В 7-7
{7}
н/о н/о +11.6 +10.4 92 +8 +8 1012.6 1008.1
22 13.06 СВ 8-8
{9}
н/о н/о +11.6 +10.4 92 +8 +8 1013.3 1008.8
23 13.06 СВ 8-9
{9}
н/о н/о +11.8 +10.1 89 +8 +8 1013.6 1009.1
00 14.06 СВ 8-8
{9}
н/о н/о +11.6 +10.4 92 +8 +8 1013.7 1009.2
01 14.06 В 9-10
{11}
н/о н/о +11.5 +10.4 93 +8 +8 1013.5 1009.0
02 14.06 В 9-10
{12}
н/о н/о +11.6 +10.2 91 +8 +8 1013.6 1009.1
03 14.06 В 7-9
{11}
н/о н/о +12.2 +10.1 87 +9 +9 1013.8 1009.3
04 14.06 В 7-8
{8}
н/о н/о +12.4 +10.3 87 +9 +9 1014.0 1009.5
05 14.06 В 3-5
{9}
н/о н/о +13.2 +10.0 81 +12 +12 1014.5 1010.0
06 14.06 ЮВ 3-5
{12}
н/о н/о +13.1 +9.9 81 +12 +12 1014.7 1010.2 +11.4 +13.6
07 14.06 СВ 2-3
{5}
н/о н/о +13.3 +10.3 82 +13 +13 1015.0 1010.5
08 14.06 ЮВ 1-2
{4}
н/о н/о +15.9 +10.9 72 +17 +17 1015.2 1010.8
09 14.06 СВ 5-6
{6}
н/о н/о +13.0 +10.7 86 +11 +11 1015.5 1011.0
10 14.06 СВ 5-6
{6}
н/о н/о +13.4 +11.1 86 +11 +11 1015.5 1011.0
11 14.06 СВ 4-5
{7}
н/о н/о +13.4 +11.1 86 +12 +12 1015.4 1010.9
12 14.06 СВ 5-7
{7}
н/о н/о +13.5 +11.0 85 +12 +12 1015.5 1011.0
13 14.06 СВ 5-6
{8}
н/о н/о +13.4 +11.5 88 +11 +11 1015.6 1011.1
14 14.06 СВ 7-8
{8}
н/о н/о +13.7 +11.2 85 +11 +11 1015.4 1010.9
15 14.06 СВ 5-6
{7}
н/о н/о +14.0 +11.2 83 +12 +12 1015.3 1010.8
16 14.06 СВ 5-6
{7}
н/о н/о +13.8 +10.8 82 +12 +12 1015.6 1011.1
17 14.06 СВ 5-5
{6}
н/о н/о +14.2 +10.6 79 +13 +13 1015.9 1011.4
18 14.06 СВ 4-4
{8}
н/о н/о +14.4 +10.2 76 +13 +13 1016.0 1011.5 +12.7 +16.6
19 14.06 ЮЗ 7-9
{9}
н/о н/о +14.4 +9.2 71 +12 +12 1016.6 1012.1
20 14.06 ЮЗ 11-15
{15}
н/о н/о +13.6 +9.3 75 +10 +10 1017.0 1012.5
21 14.06 ЮЗ 9-11
{15}
н/о н/о +13.0 +9.8 81 +10 +10 1017.8 1013.3
22 14.06 З 7-8
{10}
н/о н/о +12.8 +10.0 83 +10 +10 1018.1 1013.6
23 14.06 З 5-6
{8}
н/о н/о +12.3 +10.4 88 +10 +10 1018.3 1013.8
00 15.06 ЮЗ 6-7
{15}
н/о н/о +12.2 +10.4 89 +9 +9 1018.7 1014.2
01 15.06 З 4-5
{6}
н/о н/о +12.0 +10.4 90 +10 +10 1019.0 1014.5
02 15.06 З 2-3
{4}
н/о н/о +12.0 +10.6 91 +11 +11 1019.1 1014.6
03 15.06 ЮВ 1-2
{3}
н/о н/о +12.3 +10.0 86 +12 +12 1019.3 1014.8
04 15.06 ЮВ 2-3
{3}
н/о н/о +12.1 +10.2 88 +11 +11 1019.6 1015.1
05 15.06 ЮВ 2-3
{4}
н/о н/о +12.8 +10.7 87 +12 +12 1019.3 1014.8
06 15.06 В 3-4
{6}
н/о н/о +13.0 +10.9 87 +12 +12 1019.4 1014.9 +11.9 +15.0
07 15.06 В 2-3
{3}
н/о н/о +14.3 +10.3 77 +14 +14 1019.8 1015.3
08 15.06 СВ 1-2
{4}
н/о н/о +15.1 +10.3 73 +16 +16 1020.0 1015.5
09 15.06 СВ 3-4
{4}
н/о н/о +14.5 +11.1 80 +14 +14 1019.8 1015.3
10 15.06 СВ 3-4
{4}
н/о н/о +14.5 +11.1 80 +14 +14 1019.9 1015.4
11 15.06 СВ 6-7
{7}
н/о н/о +14.0 +11.2 83 +12 +12 1019.0 1014.5
12 15.06 СВ 6-7
{8}
н/о н/о +13.8 +11.3 85 +12 +12 1018.9 1014.4
13 15.06 СВ 6-7
{8}
н/о н/о +13.4 +11.1 86 +11 +11 1018.0 1013.5
14 15.06 СВ 8-9
{9}
н/о н/о +13.5 +11.4 87 +11 +11 1017.1 1012.6
15 15.06 СВ 9-10
{10}
н/о н/о +13.5 +11.6 88 +11 +11 1016.5 1012.0
16 15.06 СВ 9-10
{10}
н/о н/о +13.5 +11.6 88 +11 +11 1016.0 1011.5
17 15.06 СВ 10-12
{12}
н/о н/о +13.1 +11.3 89 +10 +10 1015.3 1010.8
18 15.06 СВ 10-11
{12}
н/о н/о +12.8 +11.2 90 +9 +9 1014.7 1010.2 +12.5 +15.4
19 15.06 СВ 9-11
{12}
н/о н/о +12.5 +11.2 92 +9 +9 1014.3 1009.8
20 15.06 СВ 11-12
{13}
н/о н/о +12.0 +10.9 93 +8 +8 1013.8 1009.3
21 15.06 СВ 10-11
{12}
н/о н/о +12.0 +11.4 96 +8 +8 1013.5 1009.0
22 15.06 СВ 9-11
{11}
н/о н/о +11.9 +11.4 97 +8 +8 1013.1 1008.6
23 15.06 СВ 9-10
{10}
н/о н/о +11.8 +11.5 98 +8 +8 1012.4 1007.9
00 16.06 СВ 7-8
{13}
н/о н/о +11.7 +11.4 98 +8 +8 1012.1 1007.6

 

Местоположение метеостанции Маяк Svinoy (Норвегия): широта 62.33 долгота 5.27 высота над уровнем моря 38 м.

В архиве по умолчанию представлена погода на Маяке Svinoy за последнюю неделю. Архивные данные за месяц целиком и за предыдущие месяцы, начиная с января 2011 года, Вы можете получить, выбрав интересующий диапазон дат из раскрывающегося списка и нажав кнопку "Ввод!".


*Определитесь, кто Вы:
робот инопланетянин человек

Внимание! Время в таблицах - всемирное. Для получения местного времени необходимо прибавить поправку, которая равна 1 ч.

Смотрите также архив погоды в соседних городах и на ближайших метеорологических станциях:

Погода в Берген аэропорту (Норвегия) (5 км)
Погода в Фиске (Норвегия) (30 км)
Погода на Маяке Krakenes (Норвегия) (36 км)
Погода в Аэропорту Орста-Волда (Норвегия) (45 км)
Погода в Олесунне (Норвегия) (51 км)
Погода в Олесунн аэропорту (Норвегия) (51 км)
Погода в Сандан аэропорту (Норвегия) (70 км)
Погода в Стрын-Крокене (Норвегия) (81 км)
Погода в Флоро аэропорту (Норвегия) (84 км)
Погода в Рекдале (Норвегия) (84 км)

Пояснения к столбцам:

Ветер - указаны скорость ветра в м/с - средняя за 10 мин, порывы в срок и между сроками (в фигурных скобках) и направление, откуда дует ветер: С - северный, СВ - северо-восточный, В - восточный, ЮВ - юго-восточный, Ю - южный, ЮЗ - юго-западный, З - западный, СЗ - северо-западный.
Видимость - горизонтальная дальность видимости в метрах или километрах. При видимости от 1 до 10 км при отсутствии осадков обычно наблюдается дымка, при ухудшении видимости до 1 км и менее - туман. В сухую погоду видимость может ухудшаться дымом, пылью или мглою.
Явления - указаны атмосферные явления, наблюдавшиеся в срок или в последний час перед сроком; фигурными скобками обозначены явления, наблюдавшиеся между сроками (за 1-3 часа до срока); квадратными скобками обозначены град или гололедные отложения с указанием их диаметра в мм.
Облачность - указаны через наклонную черту общая и нижняя облачность в баллах и высота нижней границы облаков в метрах; квадратными скобками обозначены формы облаков: Ci - перистые, Cs - перисто-слоистые, Cc - перисто-кучевые, Ac - высококучевые, As - высокослоистые, Sc - слоисто-кучевые, Ns - слоисто-дождевые, Cu - кучевые, Cb - кучево-дождевые. Подробнее классификацию облаков см. в Атласе облаков (PDF).
T - Температура воздуха - температура, измеренная на высоте 2 м над землей.
Td - Температура точки росы - температура, при понижении до которой содержащийся в воздухе водяной пар достигнет насыщения.
f - Относительная влажность воздуха - влажноcть воздуха, измеренная на высоте 2 м над землей.
Te - Эффективная температура - температура, которую ощущает одетый по сезону человек в тени. Характеристика душности погоды. При расчете учитывается влияние влажности воздуха и скорости ветра на теплоощущения человека.
Tes - Эффективная температура на солнце - температура, которую ощущает человек, с поправкой на солнечный нагрев. Характеристика знойности погоды. Зависит от высоты солнца над горизонтом, облачности и скорости ветра. Ночью, в пасмурную погоду, а также при ветре 12 м/с и более поправка равна нулю.
P - Атмосферное давление - приведенное к уровню моря атмосферное давление.
Po - Атмосферное давление - измеренное на уровне метеостанции атмосферное давление.
Tmin - Минимальная температура - минимум температуры воздуха на высоте 2 м над землей.
Tmax - Максимальная температура - максимум температуры воздуха на высоте 2 м над землей.
R - Количество осадков - Количество выпавших осадков за период времени, мм. При наведении курсора мыши на число - период времени, за который выпало указанное количество осадков.
R24 - Количество осадков - Количество выпавших осадков за 24 часа, мм.
S - Снежный покров - Высота снежного покрова, см. При наведении курсора мыши на число - состояние снежного покрова и степень покрытия местности в баллах.